Platte River (Nebraska), Leshara (06796500)

StateNebraskaLatestUnknown (2170 cfs)
RiverPlatte RiverRatingObservedEstimated
Updated2026-05-05 9:00 (48 minutes ago)Flood - The river is flooding. Obstacles can be treacherous or deadly. The river should be avoided at this stage for casual trips and definitely for the inexperienced. Trips should be attempted only with protective gear and equipment.Flood(none)(none)
Discharge2170 cfs (median: 6250 cfs)High - The river is high and potentially dangerous, especially for the young and / or inexperienced. Normal stream obstacles are sometimes difficult to navigate. Extended distances can be attempted, but canoe travel may not be advisable.High(none)(none)
Height3.88 feetGood - Conditions are ideal for a canoe or kayak. Boats typically will drag on fewer than one-quarter of riffles, if at all, and portages are unnecessary or rare. Normal float lengths can be attempted without a problem.Good(none)(none)
TrendFalling (falling over 24 hours)Low - River is low but can still be floated. Some riffles are okay but most come with significant dragging and might need a portage. Float lengths should be reduced to accommodate low flow, dragging, and portages.Low(none)(none)
USGSExternal icon USGS Site (External icon Duck Duck Go Maps)Poor - River is too low to float comfortably. Most or all riffles will drag or must be portaged and some obstacles (such as slick shelf rock) cause undue problems. Avoid the river at this stage for casual paddling trips.Poor(none)(none)

Trending Data

Plot Image

Trips for Platte River (Nebraska), Leshara (06796500)

DateStartEndDistanceConditionDischargeHeightFishingDetails

A total of 0 rows are displayed.

Condition Descriptions

Fishing Conditions

Fish Species

Notes

Classic Trip List

The classic River Trips application is still available for use. It is updated with the new system using a data retrofit. It is no longer maintained. The original River Trips application is no longer updated (as of 1 Dec 2016) but can be checked for errors or for the condition of the data before it was converted to the new system.

Gauge Data Table

ObservationHeightDischargeMaximum
Discharge
Minimum
Discharge
Mean
Discharge
P05P10P20P25P50
(Median)
P75P80P90P95
2026-05-05 09:00 3.88 2170 14600 (2016) 2270 (2004) 6220 2370 2710 3840 4240 6250 7010 7570 10900 12900
2026-05-05 08:00 3.89 2190 14600 (2016) 2270 (2004) 6220 2370 2710 3840 4240 6250 7010 7570 10900 12900
2026-05-05 07:00 3.89 2190 14600 (2016) 2270 (2004) 6220 2370 2710 3840 4240 6250 7010 7570 10900 12900
2026-05-05 06:00 3.90 2220 14600 (2016) 2270 (2004) 6220 2370 2710 3840 4240 6250 7010 7570 10900 12900
2026-05-05 05:00 3.90 2220 14600 (2016) 2270 (2004) 6220 2370 2710 3840 4240 6250 7010 7570 10900 12900
2026-05-05 04:00 3.88 2170 14600 (2016) 2270 (2004) 6220 2370 2710 3840 4240 6250 7010 7570 10900 12900
2026-05-05 03:00 3.86 2110 14600 (2016) 2270 (2004) 6220 2370 2710 3840 4240 6250 7010 7570 10900 12900
2026-05-05 02:00 3.86 2110 14600 (2016) 2270 (2004) 6220 2370 2710 3840 4240 6250 7010 7570 10900 12900
2026-05-05 01:00 3.85 2080 14600 (2016) 2270 (2004) 6220 2370 2710 3840 4240 6250 7010 7570 10900 12900
2026-05-05 00:00 3.84 2060 14600 (2016) 2270 (2004) 6220 2370 2710 3840 4240 6250 7010 7570 10900 12900
2026-05-04 23:00 3.85 2080 14600 (2016) 2270 (2004) 6220 2370 2710 3840 4240 6250 7010 7570 10900 12900
2026-05-04 22:00 3.84 2060 16000 (2016) 2490 (2023) 6170 2510 2880 3770 4470 6150 7100 7650 10200 13600
2026-05-04 21:00 3.87 2140 16000 (2016) 2490 (2023) 6170 2510 2880 3770 4470 6150 7100 7650 10200 13600
2026-05-04 20:00 3.87 2140 16000 (2016) 2490 (2023) 6170 2510 2880 3770 4470 6150 7100 7650 10200 13600
2026-05-04 19:00 3.88 2170 16000 (2016) 2490 (2023) 6170 2510 2880 3770 4470 6150 7100 7650 10200 13600
2026-05-04 18:00 3.89 2190 16000 (2016) 2490 (2023) 6170 2510 2880 3770 4470 6150 7100 7650 10200 13600
2026-05-04 17:00 3.90 2220 16000 (2016) 2490 (2023) 6170 2510 2880 3770 4470 6150 7100 7650 10200 13600
2026-05-04 16:00 3.90 2220 16000 (2016) 2490 (2023) 6170 2510 2880 3770 4470 6150 7100 7650 10200 13600
2026-05-04 15:00 3.90 2220 16000 (2016) 2490 (2023) 6170 2510 2880 3770 4470 6150 7100 7650 10200 13600
2026-05-04 14:00 3.92 2280 16000 (2016) 2490 (2023) 6170 2510 2880 3770 4470 6150 7100 7650 10200 13600
2026-05-04 13:00 3.93 2310 16000 (2016) 2490 (2023) 6170 2510 2880 3770 4470 6150 7100 7650 10200 13600
2026-05-04 12:00 3.93 2310 16000 (2016) 2490 (2023) 6170 2510 2880 3770 4470 6150 7100 7650 10200 13600
2026-05-04 11:00 3.91 2250 16000 (2016) 2490 (2023) 6170 2510 2880 3770 4470 6150 7100 7650 10200 13600
2026-05-04 10:00 3.92 2280 16000 (2016) 2490 (2023) 6170 2510 2880 3770 4470 6150 7100 7650 10200 13600
2026-05-04 09:00 3.92 2280 16000 (2016) 2490 (2023) 6170 2510 2880 3770 4470 6150 7100 7650 10200 13600
2026-05-04 08:00 3.93 2310 16000 (2016) 2490 (2023) 6170 2510 2880 3770 4470 6150 7100 7650 10200 13600
2026-05-04 07:00 3.92 2280 16000 (2016) 2490 (2023) 6170 2510 2880 3770 4470 6150 7100 7650 10200 13600
2026-05-04 06:00 3.92 2280 16000 (2016) 2490 (2023) 6170 2510 2880 3770 4470 6150 7100 7650 10200 13600
2026-05-04 05:00 3.93 2310 16000 (2016) 2490 (2023) 6170 2510 2880 3770 4470 6150 7100 7650 10200 13600
2026-05-04 04:00 3.92 2280 16000 (2016) 2490 (2023) 6170 2510 2880 3770 4470 6150 7100 7650 10200 13600
2026-05-04 03:00 3.91 2250 16000 (2016) 2490 (2023) 6170 2510 2880 3770 4470 6150 7100 7650 10200 13600
2026-05-04 02:00 3.91 2250 16000 (2016) 2490 (2023) 6170 2510 2880 3770 4470 6150 7100 7650 10200 13600
2026-05-04 01:00 3.91 2250 16000 (2016) 2490 (2023) 6170 2510 2880 3770 4470 6150 7100 7650 10200 13600
2026-05-04 00:00 3.90 2220 16000 (2016) 2490 (2023) 6170 2510 2880 3770 4470 6150 7100 7650 10200 13600
2026-05-03 23:00 3.89 2190 16000 (2016) 2490 (2023) 6170 2510 2880 3770 4470 6150 7100 7650 10200 13600

A total of 35 rows are displayed for years 1995 through 2024.